Freeport, IL

4:02 PM CST on December 14, 2019 (GMT -0600)
Albertus

Weather History for KFEP - October, 2019

Change the Weather History Date:

Tuesday, October 29, 2019

  Actual Average Record
Temperature  
Mean Temperature 32 °F -  
Max Temperature 38 °F 58 °F 75 °F (2004)
Min Temperature 26 °F 34 °F 20 °F (1980)
Degree Days  
Heating Degree Days 33    
Moisture  
Dew Point 29 °F    
Average Humidity 88    
Maximum Humidity 100    
Minimum Humidity 61    
Precipitation  
Precipitation 0.15 in - - ()
Sea Level Pressure  
Sea Level Pressure 30.23 in    
Wind  
Wind Speed 6 mph (NNW)    
Max Wind Speed 10 mph    
Max Gust Speed 18 mph    
Visibility 9 miles    
Events Snow    
Averages and records for this station are not official NWS values.
T = Trace of Precipitation, MM = Missing Value Source: NWS Daily Summary

Daily Weather History Graph

Daily Weather History Graph

Search for Another Location

Airport or City:

Astronomy

Oct. 29, 2019 Rise Set
Actual Time 7:27 AM CDT 5:55 PM CDT
Civil Twilight 6:58 AM CDT 6:24 PM CDT
Nautical Twilight 6:25 AM CDT 6:57 PM CDT
Astronomical Twilight 5:52 AM CDT 7:30 PM CDT
Moon 9:02 AM CDT (10/29) 7:18 PM CDT (10/29)
Length of Visible Light 11h 26m
Length of Day
10h 28m
Waxing Crescent, 3% of the Moon is Illuminated
Oct 29
Waxing Crescent
Nov 4
First Quarter
Nov 12
Full
Nov 19
Last Quarter
Nov 26
New

Hourly Weather History & Observations

Time (CDT) Temp. Windchill Dew Point Humidity Pressure Visibility Wind Dir Wind Speed Gust Speed Precip Events Conditions
12:15 AM 32.0 °F 23.6 °F 32.0 °F 100% 30.11 in 1.8 mi NW 10.4 mph 18.4 mph N/A Snow Light Snow
12:35 AM 32.0 °F 23.6 °F 32.0 °F 100% 30.12 in 1.8 mi NNW 10.4 mph - N/A Snow Light Snow
12:55 AM 32.0 °F 24.2 °F 32.0 °F 100% 30.11 in 1.5 mi North 9.2 mph - N/A Snow Light Snow
1:15 AM 32.0 °F 25.6 °F 32.0 °F 100% 30.12 in 2.0 mi NNW 6.9 mph - N/A Snow Light Snow
1:35 AM 32.0 °F 27.5 °F 32.0 °F 100% 30.12 in 1.2 mi North 4.6 mph - N/A Snow Light Snow
1:55 AM 31.8 °F 26.2 °F 31.8 °F 100% 30.13 in 1.5 mi North 5.8 mph - N/A Snow Light Snow
2:15 AM 31.8 °F 27.3 °F 31.8 °F 100% 30.12 in 0.8 mi NNE 4.6 mph - N/A Snow Snow
2:35 AM 31.8 °F 27.3 °F 31.8 °F 100% 30.11 in 1.2 mi North 4.6 mph - N/A Snow Light Snow
2:55 AM 31.8 °F 27.3 °F 31.8 °F 100% 30.11 in 2.0 mi North 4.6 mph - N/A Snow Light Snow
3:15 AM 31.8 °F 27.3 °F 31.8 °F 100% 30.10 in 4.0 mi North 4.6 mph - N/A Snow Light Snow
3:35 AM 31.8 °F 28.5 °F 31.8 °F 100% 30.10 in 7.0 mi North 3.5 mph - N/A   Overcast
3:55 AM 31.8 °F 27.3 °F 31.8 °F 100% 30.10 in 10.0 mi North 4.6 mph - N/A   Overcast
4:15 AM 31.8 °F 27.3 °F 31.8 °F 100% 30.11 in 10.0 mi NNW 4.6 mph - N/A   Overcast
4:35 AM 31.8 °F 24.6 °F 31.8 °F 100% 30.12 in 10.0 mi NNW 8.1 mph - N/A   Overcast
4:55 AM 31.8 °F 25.4 °F 31.8 °F 100% 30.13 in 10.0 mi NNW 6.9 mph - N/A   Overcast
5:15 AM 31.8 °F 25.4 °F 31.8 °F 100% 30.14 in 10.0 mi NNW 6.9 mph - N/A   Overcast
5:35 AM 31.6 °F 24.4 °F 31.6 °F 100% 30.16 in 10.0 mi NNW 8.1 mph - N/A   Overcast
6:15 AM 31.5 °F 23.5 °F 31.1 °F 99% 30.17 in 10.0 mi NNW 9.2 mph - N/A   Overcast
6:35 AM 31.1 °F 24.5 °F 30.9 °F 99% 30.17 in 10.0 mi NNW 6.9 mph - N/A   Overcast
6:55 AM 31.1 °F 26.4 °F 30.7 °F 99% 30.18 in 10.0 mi NNW 4.6 mph - N/A   Overcast
7:15 AM 31.1 °F 25.4 °F 31.1 °F 100% 30.18 in 10.0 mi NNW 5.8 mph - N/A   Overcast
7:35 AM 31.1 °F 24.5 °F 30.9 °F 99% 30.19 in 10.0 mi NNW 6.9 mph - N/A   Overcast
7:55 AM 31.1 °F 24.5 °F 30.6 °F 98% 30.19 in 10.0 mi North 6.9 mph - N/A   Overcast
8:15 AM 30.7 °F 24.9 °F 30.0 °F 97% 30.20 in 10.0 mi NNW 5.8 mph - N/A   Overcast
8:35 AM 30.7 °F 26.0 °F 30.2 °F 98% 30.21 in 10.0 mi NNW 4.6 mph - N/A   Overcast
8:55 AM 31.1 °F 25.4 °F 29.8 °F 95% 30.22 in 10.0 mi NNW 5.8 mph - N/A   Overcast
9:15 AM 31.1 °F 26.4 °F 29.5 °F 94% 30.23 in 10.0 mi NNW 4.6 mph - N/A   Overcast
9:35 AM 31.1 °F 24.5 °F 29.1 °F 92% 30.24 in 10.0 mi NNW 6.9 mph - N/A   Overcast
9:55 AM 31.3 °F 26.6 °F 29.3 °F 92% 30.24 in 10.0 mi NNW 4.6 mph - 0.01 in   Overcast
10:35 AM 32.0 °F 25.6 °F 28.0 °F 85% 30.25 in 10.0 mi NNW 6.9 mph - 0.12 in   Scattered Clouds
10:55 AM 32.2 °F 24.4 °F 27.7 °F 83% 30.27 in 10.0 mi NW 9.2 mph - 0.14 in   Mostly Cloudy
11:15 AM 32.7 °F 25.7 °F 27.3 °F 81% 30.27 in 10.0 mi NNW 8.1 mph - N/A   Mostly Cloudy
11:35 AM 32.9 °F 25.9 °F 27.3 °F 80% 30.27 in 10.0 mi NNW 8.1 mph - N/A   Mostly Cloudy
11:55 AM 33.8 °F 27.0 °F 27.1 °F 77% 30.26 in 10.0 mi North 8.1 mph - N/A   Mostly Cloudy
12:15 PM 34.3 °F 26.5 °F 27.7 °F 77% 30.28 in 10.0 mi NW 10.4 mph - N/A   Mostly Cloudy
12:35 PM 34.2 °F 28.2 °F 27.1 °F 75% 30.28 in 10.0 mi NNW 6.9 mph - N/A   Mostly Cloudy
12:55 PM 34.0 °F 28.8 °F 25.9 °F 72% 30.27 in 10.0 mi North 5.8 mph - N/A   Scattered Clouds
1:15 PM 35.2 °F 31.2 °F 26.6 °F 71% 30.26 in 10.0 mi NW 4.6 mph - N/A   Scattered Clouds
1:35 PM 35.2 °F 32.4 °F 26.6 °F 71% 30.26 in 10.0 mi NW 3.5 mph - N/A   Mostly Cloudy
1:55 PM 35.1 °F 30.1 °F 27.0 °F 72% 30.27 in 10.0 mi NW 5.8 mph - N/A   Mostly Cloudy
2:15 PM 37.4 °F 31.4 °F 27.5 °F 67% 30.27 in 10.0 mi WNW 8.1 mph - N/A   Overcast
2:35 PM 36.7 °F 32.0 °F 26.6 °F 67% 30.27 in 10.0 mi WNW 5.8 mph - N/A   Overcast
2:55 PM 37.4 °F 32.8 °F 26.4 °F 65% 30.28 in 10.0 mi WNW 5.8 mph - N/A   Overcast
3:15 PM 36.7 °F - 25.3 °F 64% 30.27 in 10.0 mi Calm Calm - N/A   Scattered Clouds
3:35 PM 37.6 °F 33.1 °F 25.7 °F 62% 30.27 in 10.0 mi NNE 5.8 mph - N/A   Clear
3:55 PM 38.1 °F 32.3 °F 26.1 °F 62% 30.27 in 10.0 mi NNW 8.1 mph - N/A   Scattered Clouds
4:15 PM 37.9 °F 34.4 °F 25.5 °F 61% 30.28 in 10.0 mi NNW 4.6 mph - N/A   Scattered Clouds
4:35 PM 37.9 °F 33.5 °F 25.9 °F 62% 30.28 in 10.0 mi North 5.8 mph - N/A   Clear
4:55 PM 37.6 °F - 25.7 °F 62% 30.28 in 10.0 mi Calm Calm - N/A   Clear
5:15 PM 36.7 °F 32.9 °F 25.5 °F 64% 30.27 in 10.0 mi North 4.6 mph - N/A   Clear
5:35 PM 35.6 °F 32.8 °F 25.9 °F 68% 30.28 in 10.0 mi North 3.5 mph - N/A   Clear
5:55 PM 34.0 °F 31.0 °F 25.5 °F 71% 30.28 in 10.0 mi North 3.5 mph - N/A   Clear
6:15 PM 34.0 °F - 26.1 °F 73% 30.28 in 10.0 mi Calm Calm - N/A   Clear
6:35 PM 32.0 °F - 27.0 °F 82% 30.29 in 10.0 mi Calm Calm - N/A   Clear
6:55 PM 31.1 °F - 27.7 °F 87% 30.29 in 10.0 mi Calm Calm - N/A   Clear
7:15 PM 31.3 °F - 28.2 °F 88% 30.30 in 10.0 mi Calm Calm - N/A   Clear
7:35 PM 29.8 °F - 28.8 °F 96% 30.31 in 10.0 mi Calm Calm - N/A   Clear
7:55 PM 29.1 °F - 27.1 °F 92% 30.31 in 10.0 mi Calm Calm - N/A   Clear
8:15 PM 28.8 °F - 27.5 °F 95% 30.32 in 10.0 mi Calm Calm - N/A   Clear
8:55 PM 28.4 °F - 27.3 °F 96% 30.33 in 10.0 mi Calm Calm - N/A   Clear
9:15 PM 28.2 °F - 27.0 °F 95% 30.32 in 10.0 mi Calm Calm - N/A   Clear
9:35 PM 26.8 °F - 26.8 °F 100% 30.33 in 10.0 mi Calm Calm - N/A   Clear
9:55 PM 26.8 °F - 26.6 °F 99% 30.33 in 10.0 mi Calm Calm - N/A   Clear
10:15 PM 27.7 °F - 27.1 °F 98% 30.33 in 10.0 mi Calm Calm - N/A   Clear
10:35 PM 27.1 °F - 26.8 °F 99% 30.32 in 10.0 mi Calm Calm - N/A   Clear
10:55 PM 26.6 °F - 26.4 °F 99% 30.33 in 10.0 mi Calm Calm - N/A   Clear
11:15 PM 26.6 °F - 26.2 °F 99% 30.33 in 10.0 mi Calm Calm - N/A   Clear
11:35 PM 27.9 °F - 27.9 °F 100% 30.32 in 10.0 mi Calm Calm - N/A   Clear
11:55 PM 27.3 °F - 26.6 °F 97% 30.32 in 10.0 mi Calm Calm - N/A   Clear